Погода в Шяуляе

Литва     55°55′58″N   23°19′03″E
темп.,
°C
ветер,
м/с
пор.,
м/с
влажн.,
%
обл.,
%
осадки,
мм/ч
давл.,
гПа
погр.,
м
17 сентября, пт
пт1700:00+10в51188100 0.0 1013407
03:00+10в61186100 0.1 1013392
06:00+10в5987100 0.0 1012409
09:00+9всв51093100 0.1 1012467
12:00+9в61291100 0.3 1013540
15:00+8в61392100 0.9 1014559
18:00+8в61389100 0.4 1014589
21:00+7в61479100 0.5 1015615
18 сентября, сб
сб1800:00+7всв61477100 0.0 1016575
03:00+6всв61378100 0.0 1017422
06:00+4всв61380100 0.0 1017393
09:00+5всв61272100 0.0 1018465
12:00+9всв71054100 0.0 1018794
15:00+12всв7946100 0.0 10181221
18:00+11всв7114999 0.0 10171255
21:00+8св7145981 0.0 1018552
19 сентября, вс
вс1900:00+6св6147242 0.0 1019459
03:00+4ссв613810 0.0 1018370
06:00+3ссв613870 0.0 1018388
09:00+5ссв714790 0.0 1018593
12:00+10св8105524 0.0 1017969
15:00+12всв7105084 0.0 10171355
18:00+11всв7105796 0.0 10181339
21:00+8св5116328 0.0 1019822
20 сентября, пн
пн2000:00+7св7116715 0.0 1019761
03:00+4ссв613795 0.0 1020455
06:00+4ссв6128199 0.0 1019547
09:00+6ссв61173100 0.0 1020862
12:00+4ссв61096100 1.3 1020791
15:00+4св6997100 2.6 1020868
18:00+5св5897100 0.6 10201000
21:00+5св5998100 1.3 1020926
21 сентября, вт
вт2100:00+5ссв4894100 0.3 1020847
03:00+5ссв4891100 0.3 1020436
06:00+5ссв4890100 0.0 1020346
09:00+5с3789100 0.0 1019451
12:00+7ссв5774100 0.0 1019815
15:00+7с5677100 0.0 1019930
18:00+7ссз3779100 0.0 1018901
21:00+5ссз497982 0.0 1018267